Memphis, TN

12:52 PM CDT on June 26, 2017 (GMT -0500)
Memphis International

Weather History for KMEM - February, 2014

Change the Weather History Date:

Thursday, February 20, 2014

  Actual Average Record
Temperature  
Mean Temperature 59 °F 47 °F  
Max Temperature 74 °F 56 °F 80 °F (1986)
Min Temperature 44 °F 38 °F 13 °F (1958)
Degree Days  
Heating Degree Days 6 18  
Month to date heating degree days 495 412  
Since 1 July heating degree days 2656 2314  
Cooling Degree Days 0 0  
Month to date cooling degree days 0 0  
Year to date cooling degree days 0 1  
Growing Degree Days 9 (Base 50)    
Moisture  
Dew Point 54 °F    
Average Humidity 68    
Maximum Humidity 84    
Minimum Humidity 52    
Precipitation  
Precipitation T in 0.16 in 2.48 in (1961)
Month to date precipitation 4.82 3.09  
Year to date precipitation 7.98 7.07  
Snow  
Snow 0.00 in 0.00 in 4.30 in (1936)
Month to date snowfall 0.3 1.0  
Since 1 July snowfall 0.3 3.1  
Snow Depth 0.00 in    
Sea Level Pressure  
Sea Level Pressure 29.76 in    
Wind  
Wind Speed 19 mph (SSW)    
Max Wind Speed 32 mph    
Max Gust Speed 47 mph    
Visibility 10 miles    
Events Rain , Thunderstorm    
T = Trace of Precipitation, MM = Missing Value Source: NWS Daily Summary

Daily Weather History Graph

Daily Weather History Graph

Search for Another Location

Airport or City:

Trip Planner

Search our weather history database for the weather conditions in past years. The results will help you decide how hot, cold, wet, or windy it might be!

Date:

Astronomy

Feb. 20, 2014 Rise Set
Actual Time 6:40 AM CST 5:47 PM CST
Civil Twilight 6:14 AM CST 6:13 PM CST
Nautical Twilight 5:45 AM CST 6:42 PM CST
Astronomical Twilight 5:15 AM CST 7:12 PM CST
Moon 11:27 PM CST (2/20) 9:36 AM CST (2/20)
Length of Visible Light 11h 58m
Length of Day
11h 07m
Waning Gibbous, 70% of the Moon is Illuminated
Feb 20
Waning Gibbous
Feb 22
Last Quarter
Mar 1
New
Mar 8
First Quarter
Mar 16
Full

Hourly Weather History & Observations

Time (CST) Temp. Dew Point Humidity Pressure Visibility Wind Dir Wind Speed Gust Speed Precip Events Conditions
12:54 AM 63.0 °F 57.0 °F 81% 29.81 in 10.0 mi SSE 12.7 mph - N/A   Scattered Clouds
1:54 AM 63.0 °F 57.0 °F 81% 29.79 in 10.0 mi South 15.0 mph - N/A   Mostly Cloudy
2:54 AM 63.0 °F 57.0 °F 81% 29.77 in 10.0 mi South 12.7 mph - N/A   Mostly Cloudy
3:54 AM 66.0 °F 57.9 °F 75% 29.77 in 10.0 mi South 19.6 mph 25.3 mph N/A   Mostly Cloudy
4:54 AM 66.0 °F 57.9 °F 75% 29.77 in 10.0 mi SSW 17.3 mph 26.5 mph N/A   Overcast
5:12 AM 66.2 °F 57.2 °F 73% 29.78 in 10.0 mi SSW 13.8 mph 31.1 mph N/A   Overcast
5:54 AM 66.0 °F 57.9 °F 75% 29.77 in 10.0 mi SSW 19.6 mph 27.6 mph N/A   Mostly Cloudy
6:11 AM 66.2 °F 57.2 °F 73% 29.78 in 10.0 mi South 19.6 mph 27.6 mph N/A   Mostly Cloudy
6:26 AM 66.2 °F 57.2 °F 73% 29.78 in 10.0 mi SSW 15.0 mph 34.5 mph N/A   Mostly Cloudy
6:54 AM 66.9 °F 57.9 °F 73% 29.79 in 10.0 mi SSW 15.0 mph 34.5 mph N/A   Overcast
7:30 AM 66.2 °F 59.0 °F 78% 29.79 in 10.0 mi SSW 18.4 mph 29.9 mph N/A   Overcast
7:54 AM 66.9 °F 59.0 °F 76% 29.78 in 10.0 mi South 23.0 mph 32.2 mph N/A   Overcast
8:14 AM 66.2 °F 59.0 °F 78% 29.79 in 10.0 mi South 15.0 mph 35.7 mph N/A   Overcast
8:35 AM 68.0 °F 59.0 °F 73% 29.77 in 10.0 mi South 23.0 mph 29.9 mph N/A   Overcast
8:54 AM 68.0 °F 59.0 °F 73% 29.76 in 10.0 mi South 21.9 mph 33.4 mph N/A   Overcast
9:54 AM 70.0 °F 60.1 °F 71% 29.75 in 10.0 mi South 24.2 mph 35.7 mph N/A   Overcast
10:30 AM 69.8 °F 60.8 °F 73% 29.75 in 10.0 mi South 20.7 mph 31.1 mph N/A   Overcast
10:54 AM 71.1 °F 60.1 °F 68% 29.73 in 10.0 mi South 24.2 mph 40.3 mph N/A   Overcast
11:54 AM 72.0 °F 60.1 °F 66% 29.71 in 10.0 mi SSW 19.6 mph 33.4 mph N/A   Overcast
12:05 PM 71.6 °F 60.8 °F 69% 29.72 in 10.0 mi SSW 23.0 mph 38.0 mph N/A   Overcast
12:54 PM 73.9 °F 61.0 °F 64% 29.68 in 10.0 mi SSW 29.9 mph 41.4 mph N/A   Overcast
1:54 PM 73.0 °F 60.1 °F 64% 29.66 in 10.0 mi SSW 18.4 mph 33.4 mph N/A   Overcast
2:27 PM 73.4 °F 60.8 °F 65% 29.66 in 10.0 mi SSW 15.0 mph 29.9 mph N/A   Overcast
2:54 PM 73.9 °F 60.1 °F 62% 29.65 in 10.0 mi SSW 18.4 mph 36.8 mph N/A   Overcast
3:51 PM 73.4 °F 60.8 °F 65% 29.65 in 10.0 mi South 24.2 mph 34.5 mph 0.00 in Rain , Thunderstorm Light Thunderstorms and Rain
3:54 PM 73.0 °F 60.1 °F 64% 29.64 in 10.0 mi South 24.2 mph 34.5 mph 0.00 in Rain , Thunderstorm Light Thunderstorms and Rain
4:54 PM 68.0 °F 57.9 °F 70% 29.66 in 10.0 mi SW 20.7 mph 29.9 mph 0.00 in Rain , Thunderstorm Light Thunderstorms and Rain
5:06 PM 66.2 °F 55.4 °F 68% 29.67 in 10.0 mi SW 20.7 mph 38.0 mph 0.00 in   Overcast
5:54 PM 63.0 °F 57.0 °F 81% 29.68 in 10.0 mi SSW 20.7 mph 31.1 mph 0.00 in   Overcast
6:31 PM 64.4 °F 57.2 °F 77% 29.72 in 10.0 mi SW 19.6 mph 26.5 mph N/A   Overcast
6:54 PM 64.0 °F 57.9 °F 80% 29.73 in 10.0 mi WSW 15.0 mph 23.0 mph N/A   Overcast
7:33 PM 57.2 °F 39.2 °F 51% 29.78 in 10.0 mi NW 21.9 mph 36.8 mph N/A   Overcast
7:54 PM 55.9 °F 39.9 °F 55% 29.81 in 10.0 mi NNW 21.9 mph 31.1 mph N/A   Overcast
8:54 PM 50.0 °F 33.1 °F 52% 29.85 in 10.0 mi NW 26.5 mph 36.8 mph N/A   Mostly Cloudy
9:54 PM 48.0 °F 32.0 °F 54% 29.90 in 10.0 mi NW 15.0 mph 24.2 mph N/A   Mostly Cloudy
10:54 PM 46.9 °F 32.0 °F 56% 29.95 in 10.0 mi NW 8.1 mph - N/A   Scattered Clouds
11:54 PM 45.0 °F 30.9 °F 58% 29.99 in 10.0 mi Calm Calm - N/A   Partly Cloudy